Regional Weather Roundup
Issued by NWS Austin/San Antonio, TX

Home | Current Version | Previous Version | Text Only | Print | Product List | Glossary On
Versions: 1 2 3 4 5 6 7 8 9 10 11 12 13 14 15 16 17 18 19 20 21 22 23 24 25 26 27 28 29 30 31 32 33 34 35 36 37 38 39 40 41 42 43 44 45 46 47 48 49 50
000
ASUS44 KEWX 222210
RWREWX
SOUTH TEXAS REGIONAL WEATHER ROUNDUP
NATIONAL WEATHER SERVICE AUSTIN/SAN ANTONIO TX
400 PM CST THU FEB 22 2018

NOTE: "FAIR" INDICATED FEW OR NO CLOUDS BELOW 12,000 FEET WITH NO
SIGNIFICANT WEATHER AND/OR OBSTRUCTIONS TO VISIBILITY.

* - THESE STATIONS ARE NOT NWS OR FAA STATIONS...AND ARE NOT SUBJECT
    TO NWS AND FAA QUALITY CONTROL.

TXZ171-172-183>190-222300-
TEXAS HILL COUNTRY AND EDWARDS PLATEAU

CITY           SKY/WX    TMP DP  RH WIND       PRES   REMARKS
JUNCTION       NOT AVBL
*LLANO         CLOUDY    41  37  87 N3        30.23S
BURNET         CLOUDY    40  40 100 NW7       30.20S FOG     WCI  35
*HORSESHOE BAY CLOUDY    40  40 100 N6        30.19F FOG     WCI  36
*KERRVILLE     CLOUDY    49  45  86 CALM      30.15F
*FREDERICKSBRG CLOUDY    44  42  90 CALM      30.16S
*ROCKSPRINGS   CLOUDY    50  48  93 CALM      30.17S
*BOERNE STAGE  CLOUDY    45  45 100 CALM      30.16F VSB 1/2
*CASTROVILLE   CLOUDY    51  49  93 E6        30.17S
HONDO          CLOUDY    53  48  83 E7        30.14F
*UVALDE        CLOUDY    53  47  81 E6        30.14F
DEL RIO        CLOUDY    55  44  66 CALM      30.12S
LAUGHLIN AFB   PTSUNNY   56  45  66 SE5       30.11F
CARRIZO SPRGS  CLOUDY    54  46  76 E6        30.13F
*EAGLE PASS    CLOUDY    57  46  67 NE5       30.12F
*FAITH RANCH   PTSUNNY   57  48  72 E8        30.12F
$$

TXZ173-191>194-202-209-217>225-228-222300-
CENTRAL AND SOUTH CENTRAL TEXAS

CITY           SKY/WX    TMP DP  RH WIND       PRES   REMARKS
GEORGETOWN     CLOUDY    41  40  96 N6        30.21F WCI  37
AUSTIN/BERGSTM CLOUDY    43  43 100 N9        30.20S WCI  38
AUSTIN/MABRY   CLOUDY    43  42  97 VRB3      30.20F FOG
*AUSTIN/EXEC   NOT AVBL
*LAGO VISTA    FOG       42  42 100 CALM      30.18F VSB 1/2
SAN MARCOS     CLOUDY    44  43  96 N12       30.19F FOG     WCI  38
NEW BRAUNFELS  CLOUDY    46  44  93 NE10      30.16F FOG     WCI  41
RANDOLPH AFB   CLOUDY    47  46  94 NE7       30.16F FOG     WCI  44
PT SAN ANTONIO CLOUDY    49  47  93 NE7       30.13F FOG     WCI  47
SAN ANTONIO    CLOUDY    49  46  90 N8        30.16F WCI  45
STINSON FIELD  CLOUDY    50  47  89 NE6       30.15S WCI  48
*LA GRANGE     FOG       46  46  99 NW10      30.17S VSB 1   WCI  41
*GIDDINGS      FOG       39  39  99 NW8       30.19S VSB 1/2 WCI  34
*GONZALES      CLOUDY    46  46 100 N6        30.17F FOG     WCI  42
$$

TXZ163>164-176>182-195>201-210>213-226-227-235-222300-
SOUTHEAST TEXAS

CITY           SKY/WX    TMP DP  RH WIND       PRES   REMARKS
COLLEGE STN    FOG       45  45 100 NW10      30.19R VSB 3/4 WCI  40
*BRYAN         CLOUDY    46  46 100 NW7       30.20S FOG     WCI  42
*CALDWELL      FOG       43  42  99 NW8       30.21R VSB 3/4 WCI  38
*CROCKETT      CLOUDY    54  54 100 CALM      30.19R
*BRENHAM       CLOUDY    49  49 100 N7        30.19S FOG     WCI  46
HUNTSVILLE     FOG       53  52  96 W3        30.16S VSB 3/4
CONROE         FOG       62  62 100 W7        30.15F VSB 1
HOUSTON BUSH   LGT RAIN  68  67  96 CALM      30.14S FOG
HOUSTON HOBBY  CLOUDY    76  73  91 S10G21    30.13S
*HOUSTON SW AP CLOUDY    71  70  95 NW6       30.14S FOG
PEARLAND       CLOUDY    76  73  91 S12G21    30.14F
HOUSTON HOOKS  CLOUDY    66  63  90 NW3       30.14F
ELLINGTON FLD  PTSUNNY   75  70  83 S15       30.14F FOG
SUGAR LAND     CLOUDY    67  63  87 NW6       30.13F FOG
*HOUSTON EXEC  CLOUDY    55  55 100 N6        30.17S FOG
*CLEVELAND MUN CLOUDY    73  69  87 S9G17     30.15S FOG
*WHARTON       CLOUDY    56  55  97 N5        30.16S FOG
*COLUMBUS      LGT RAIN  49  48  95 NW6       30.17F WCI  47
*EAGLE LAKE    CLOUDY    53  53 100 N7        30.15F FOG
$$

TXZ214>216-236>238-222300-
THE UPPER TEXAS COAST

CITY           SKY/WX    TMP DP  RH WIND       PRES   REMARKS
*ORANGE        CLOUDY    77  72  84 S10G18    30.19S
PORT ARTHUR    CLOUDY    77  70  79 S17G25    30.16S
GALVESTON      CLOUDY    73  70  90 SE14      30.15S FOG
ANGLETON       CLOUDY    77  71  82 S18       30.13S
*BAY CITY      CLOUDY    76  73  91 S10       30.12F FOG
PALACIOS       LGT RAIN  61  61 100 N9        30.13S FOG
$$

TXZ229>234-239>247-222300-
TEXAS COASTAL BEND AND RIO GRANDE PLAINS

CITY           SKY/WX    TMP DP  RH WIND       PRES   REMARKS
VICTORIA       CLOUDY    53  50  89 N7        30.15F FOG
*BEEVILLE      CLOUDY    50  49  94 N7        30.14F WCI  47
ROCKPORT       CLOUDY    58  55  90 N8        30.13S FOG
*PORT ARANSAS  NOT AVBL
*PORT LAVACA   CLOUDY    55  54  95 N9        30.15S FOG
*INGLESIDE     CLOUDY    57  55  92 MISG      30.12F FOG
CORPUS CHRISTI CLOUDY    55  54  96 N9        30.13F
CORPUS NAS     DRIZZLE   58  56  93 N9        30.13S FOG
*ROBSTOWN      CLOUDY    53  51  96 N9        30.14S FOG
ALICE          CLOUDY    54  50  86 N8        30.13F
KINGSVILLE NAS CLOUDY    54  52  93 N9        30.14R FOG
COTULLA        CLOUDY    53  49  86 E7        30.14F
LAREDO         CLOUDY    57  50  77 NE6       30.13F
$$

TXZ248>255-222300-
DEEP SOUTH TEXAS

CITY           SKY/WX    TMP DP  RH WIND       PRES   REMARKS
BROWNSVILLE    FAIR      73  61  65 VRB5      30.10F
PORT ISABEL    CLOUDY    64  58  80 N9        30.10S
*SOUTH PADRE   NOT AVBL
HARLINGEN      CLOUDY    63  58  83 VRB5      30.10F
*HEBBRONVILLE  CLOUDY    54  51  90 NE5       30.13S
MCALLEN        CLOUDY    61  56  83 VRB3      30.12F
*WESLACO       CLOUDY    57  54  89 N5        30.12S FOG
FALFURRIAS     CLOUDY    56  52  88 N3        30.13S
EDINBURG       CLOUDY    59  54  84 NE6       30.13S
*ZAPATA        CLOUDY    56  49  77 N3        30.12F
$$

TXZ213>215-236>238-242>244-246-247-251-254-255-222300-
CMAN STATIONS

STATION/POSITION TIME  TEMP    WIND        PRES    WAVE
                       AIR SEA DIR/SP/G            HT/PER
                 (UTC) (F)     (DEG/KT/KT) (MB)    (FT/S)
SABINE PASS      2148   71 71  140/ 12/ 15 1023.3
SEA RIM ST PARK  2200   71     130/ 11/ 14 1021.9
NORTH JETTY/GLS  2148          120/ 13/ 15   N/A
EAGLE POINT      2148   70 71  150/ 11/ 12 1020.8
MORGANS POINT    2148   72 65  140/  9/ 15 1020.6
PORT O`CONNOR    2148   58 63  340/  9/ 11 1020.0
MALAQUITE BEACH  2148   86 63  340/  9/ 11 1019.7
BAFFIN BAY       2148   56 66  340/  8/ 10 1020.3
PORT ISABEL      2148   61 66  350/  6/ 11 1019.4
$$



USA.gov is the U.S. government's official web portal to all federal, state and local government web resources and services.